Time,TemperatureF,DewpointF,PressureIn,WindDirection,WindDirectionDegrees,WindSpeedMPH,WindSpeedGustMPH,Humidity,HourlyPrecipIn,Conditions,Clouds,dailyrainin,SoftwareType,DateUTC
2013-08-17 00:13:00,65.0,59.0,30.14,NNE,19,0.0,0.0,82,0.00,,,0.00,,2013-08-17 05:13:00,
2013-08-17 00:22:00,65.0,59.0,30.14,NNE,19,0.0,0.0,81,0.00,,,0.00,,2013-08-17 05:22:00,
2013-08-17 00:42:00,65.0,59.0,30.14,NNE,19,0.0,0.0,82,0.00,,,0.00,,2013-08-17 05:42:00,
2013-08-17 00:51:00,65.0,60.0,30.14,NNE,19,0.0,0.0,83,0.00,,,0.00,,2013-08-17 05:51:00,
2013-08-17 01:12:00,65.0,60.0,30.14,NNE,19,0.0,0.0,83,0.00,,,0.00,,2013-08-17 06:12:00,
2013-08-17 01:21:00,65.0,60.0,30.14,NNE,19,0.0,0.0,84,0.00,,,0.00,,2013-08-17 06:21:00,
2013-08-17 01:42:00,64.0,59.0,30.14,NNE,19,0.0,0.0,84,0.00,,,0.00,,2013-08-17 06:42:00,
2013-08-17 01:51:00,65.0,60.0,30.14,NE,56,0.0,0.0,84,0.00,,,0.00,,2013-08-17 06:51:00,
2013-08-17 02:11:00,65.0,60.0,30.14,NE,39,0.0,0.0,83,0.00,,,0.00,,2013-08-17 07:11:00,
2013-08-17 02:22:00,64.0,59.0,30.13,NE,39,0.0,0.0,84,0.00,,,0.00,,2013-08-17 07:22:00,
2013-08-17 02:42:00,64.0,59.0,30.13,NE,39,0.0,0.0,84,0.00,,,0.00,,2013-08-17 07:42:00,
2013-08-17 02:52:00,64.0,59.0,30.13,NE,40,0.0,0.0,84,0.00,,,0.00,,2013-08-17 07:52:00,
2013-08-17 03:11:00,64.0,59.0,30.12,ENE,76,0.0,0.0,84,0.00,,,0.00,,2013-08-17 08:11:00,
2013-08-17 03:21:00,64.0,59.0,30.13,NNE,21,0.0,0.0,84,0.00,,,0.00,,2013-08-17 08:21:00,
2013-08-17 03:42:00,63.0,58.0,30.13,NNE,22,0.0,0.0,84,0.00,,,0.00,,2013-08-17 08:42:00,
2013-08-17 03:52:00,63.0,58.0,30.13,NNE,24,0.0,0.0,85,0.00,,,0.00,,2013-08-17 08:52:00,
2013-08-17 04:11:00,63.0,58.0,30.13,NNE,32,0.0,0.0,85,0.00,,,0.00,,2013-08-17 09:11:00,
2013-08-17 04:21:00,63.0,58.0,30.13,NE,49,0.0,0.0,84,0.00,,,0.00,,2013-08-17 09:21:00,
2013-08-17 04:43:00,63.0,58.0,30.13,ENE,74,0.0,0.0,84,0.00,,,0.00,,2013-08-17 09:43:00,
2013-08-17 04:53:00,63.0,58.0,30.14,NNE,30,0.0,0.0,85,0.00,,,0.00,,2013-08-17 09:53:00,
2013-08-17 05:12:00,63.0,58.0,30.14,East,80,0.0,0.0,85,0.00,,,0.00,,2013-08-17 10:12:00,
2013-08-17 05:23:00,63.0,59.0,30.14,East,80,0.0,0.0,86,0.00,,,0.00,,2013-08-17 10:23:00,
2013-08-17 05:42:00,63.0,59.0,30.14,East,80,0.0,0.0,86,0.00,,,0.00,,2013-08-17 10:42:00,
2013-08-17 05:52:00,63.0,59.0,30.14,East,80,0.0,0.0,87,0.00,,,0.00,,2013-08-17 10:52:00,
2013-08-17 06:11:00,63.0,59.0,30.15,East,80,0.0,0.0,87,0.00,,,0.00,,2013-08-17 11:11:00,
2013-08-17 06:22:00,63.0,59.0,30.15,East,80,0.0,0.0,88,0.00,,,0.00,,2013-08-17 11:22:00,
2013-08-17 06:42:00,62.0,58.0,30.15,NNE,22,0.0,0.0,88,0.00,,,0.00,,2013-08-17 11:42:00,
2013-08-17 06:52:00,62.0,58.0,30.15,NNE,22,0.0,0.0,88,0.00,,,0.00,,2013-08-17 11:52:00,
2013-08-17 07:11:00,63.0,59.0,30.15,ENE,62,0.0,0.0,88,0.00,,,0.00,,2013-08-17 12:11:00,
2013-08-17 07:21:00,63.0,59.0,30.16,ENE,69,0.0,0.0,88,0.00,,,0.00,,2013-08-17 12:21:00,
2013-08-17 07:42:00,62.0,59.0,30.16,East,99,0.0,0.0,91,0.04,,,0.04,,2013-08-17 12:42:00,
2013-08-17 07:52:00,62.0,60.0,30.16,ENE,74,0.0,0.0,92,0.07,,,0.07,,2013-08-17 12:52:00,
2013-08-17 08:11:00,62.0,60.0,30.16,East,101,0.0,0.0,93,0.07,,,0.07,,2013-08-17 13:11:00,
2013-08-17 08:21:00,62.0,60.0,30.16,East,101,0.0,0.0,94,0.08,,,0.08,,2013-08-17 13:21:00,
2013-08-17 08:42:00,62.0,60.0,30.17,ENE,57,0.0,0.0,94,0.04,,,0.08,,2013-08-17 13:42:00,
2013-08-17 08:52:00,62.0,61.0,30.17,East,99,0.0,0.0,95,0.02,,,0.09,,2013-08-17 13:52:00,
2013-08-17 09:11:00,62.0,61.0,30.17,NE,49,0.0,0.0,95,0.01,,,0.09,,2013-08-17 14:11:00,
2013-08-17 09:21:00,62.0,61.0,30.17,ENE,62,0.0,0.0,95,0.05,,,0.13,,2013-08-17 14:21:00,
2013-08-17 09:42:00,62.0,61.0,30.18,ENE,67,0.0,0.0,95,0.06,,,0.14,,2013-08-17 14:42:00,
2013-08-17 09:52:00,62.0,61.0,30.18,East,101,0.0,0.0,96,0.05,,,0.14,,2013-08-17 14:52:00,
2013-08-17 10:11:00,62.0,61.0,30.19,East,101,0.0,0.0,96,0.05,,,0.14,,2013-08-17 15:11:00,
2013-08-17 10:22:00,63.0,62.0,30.19,East,101,0.0,0.0,96,0.01,,,0.14,,2013-08-17 15:22:00,
2013-08-17 10:43:00,63.0,62.0,30.19,NW,306,1.0,3.0,95,0.00,,,0.14,,2013-08-17 15:43:00,
2013-08-17 10:53:00,63.0,62.0,30.20,North,360,0.0,0.0,96,0.00,,,0.14,,2013-08-17 15:53:00,
2013-08-17 11:12:00,63.0,62.0,30.20,NNE,17,0.0,0.0,95,0.01,,,0.15,,2013-08-17 16:12:00,
2013-08-17 11:23:00,64.0,63.0,30.19,North,360,0.0,0.0,95,0.01,,,0.15,,2013-08-17 16:23:00,
2013-08-17 11:42:00,64.0,63.0,30.18,NE,40,0.0,0.0,96,0.01,,,0.15,,2013-08-17 16:42:00,
2013-08-17 11:53:00,65.0,64.0,30.18,NNE,18,0.0,0.0,95,0.01,,,0.15,,2013-08-17 16:53:00,
2013-08-17 12:12:00,65.0,64.0,30.17,North,9,0.0,0.0,95,0.00,,,0.15,,2013-08-17 17:12:00,
2013-08-17 12:23:00,66.0,64.0,30.17,NNW,347,0.0,0.0,94,0.00,,,0.15,,2013-08-17 17:23:00,
2013-08-17 12:42:00,67.0,64.0,30.16,North,360,0.0,0.0,91,0.00,,,0.15,,2013-08-17 17:42:00,
2013-08-17 12:52:00,69.0,66.0,30.16,NNE,25,0.0,4.0,89,0.00,,,0.15,,2013-08-17 17:52:00,
2013-08-17 13:12:00,71.0,67.0,30.16,NW,317,0.0,1.0,86,0.00,,,0.15,,2013-08-17 18:12:00,
2013-08-17 13:21:00,72.0,67.0,30.15,ENE,64,0.0,0.0,84,0.00,,,0.15,,2013-08-17 18:21:00,
2013-08-17 13:42:00,73.0,66.0,30.15,North,355,0.0,0.0,78,0.00,,,0.15,,2013-08-17 18:42:00,
2013-08-17 13:52:00,73.0,66.0,30.14,NE,44,0.0,0.0,78,0.00,,,0.15,,2013-08-17 18:52:00,
2013-08-17 14:11:00,74.0,66.0,30.14,NNE,25,0.0,0.0,76,0.00,,,0.15,,2013-08-17 19:11:00,
2013-08-17 14:21:00,75.0,66.0,30.13,NNE,13,0.0,0.0,74,0.00,,,0.15,,2013-08-17 19:21:00,
2013-08-17 14:42:00,74.0,66.0,30.13,NE,40,0.0,1.0,75,0.00,,,0.15,,2013-08-17 19:42:00,
2013-08-17 14:52:00,75.0,67.0,30.13,North,5,0.0,1.0,75,0.00,,,0.15,,2013-08-17 19:52:00,
2013-08-17 15:11:00,75.0,67.0,30.12,NE,38,0.0,1.0,75,0.00,,,0.15,,2013-08-17 20:11:00,
2013-08-17 15:21:00,75.0,66.0,30.12,ENE,71,0.0,0.0,73,0.00,,,0.15,,2013-08-17 20:21:00,
2013-08-17 15:42:00,75.0,67.0,30.12,North,355,0.0,1.0,75,0.00,,,0.15,,2013-08-17 20:42:00,
2013-08-17 15:52:00,76.0,66.0,30.12,NE,38,0.0,0.0,71,0.00,,,0.15,,2013-08-17 20:52:00,
2013-08-17 16:11:00,76.0,66.0,30.11,NE,41,0.0,0.0,71,0.00,,,0.15,,2013-08-17 21:11:00,
2013-08-17 16:21:00,77.0,66.0,30.11,East,95,0.0,0.0,70,0.00,,,0.15,,2013-08-17 21:21:00,
2013-08-17 16:42:00,77.0,65.0,30.11,NNE,32,0.0,0.0,66,0.00,,,0.15,,2013-08-17 21:42:00,
2013-08-17 16:53:00,77.0,63.0,30.11,NNE,19,0.0,0.0,63,0.00,,,0.15,,2013-08-17 21:53:00,
2013-08-17 17:13:00,75.0,63.0,30.12,East,92,0.0,8.0,66,0.00,,,0.15,,2013-08-17 22:13:00,
2013-08-17 17:22:00,75.0,63.0,30.12,ENE,63,0.0,0.0,67,0.00,,,0.15,,2013-08-17 22:22:00,
2013-08-17 17:42:00,74.0,62.0,30.12,NE,34,0.0,5.0,67,0.00,,,0.15,,2013-08-17 22:42:00,
2013-08-17 17:52:00,74.0,63.0,30.12,NNE,33,0.0,0.0,69,0.00,,,0.15,,2013-08-17 22:52:00,
2013-08-17 18:11:00,74.0,64.0,30.12,NNE,30,0.0,0.0,71,0.00,,,0.15,,2013-08-17 23:11:00,
2013-08-17 18:22:00,73.0,63.0,30.12,ENE,66,0.0,0.0,72,0.00,,,0.15,,2013-08-17 23:22:00,
2013-08-17 18:42:00,73.0,64.0,30.11,NNW,331,0.0,1.0,73,0.00,,,0.15,,2013-08-17 23:42:00,
2013-08-17 18:52:00,73.0,65.0,30.11,NE,34,0.0,0.0,75,0.00,,,0.15,,2013-08-17 23:52:00,
2013-08-17 19:12:00,72.0,64.0,30.11,NE,43,0.0,0.0,76,0.00,,,0.15,,2013-08-18 00:12:00,
2013-08-17 19:21:00,72.0,64.0,30.11,NNE,21,0.0,0.0,76,0.00,,,0.15,,2013-08-18 00:21:00,
2013-08-17 19:42:00,71.0,63.0,30.11,NNE,22,0.0,0.0,76,0.00,,,0.15,,2013-08-18 00:42:00,
2013-08-17 19:52:00,71.0,63.0,30.11,NNE,22,0.0,0.0,77,0.00,,,0.15,,2013-08-18 00:52:00,
2013-08-17 20:11:00,70.0,63.0,30.11,NNE,22,0.0,0.0,79,0.00,,,0.15,,2013-08-18 01:11:00,
2013-08-17 20:21:00,69.0,62.0,30.11,NNE,22,0.0,0.0,79,0.00,,,0.15,,2013-08-18 01:21:00,
2013-08-17 20:42:00,69.0,63.0,30.11,NNE,22,0.0,0.0,80,0.00,,,0.15,,2013-08-18 01:42:00,
2013-08-17 20:52:00,68.0,62.0,30.11,NNE,22,0.0,0.0,82,0.00,,,0.15,,2013-08-18 01:52:00,
2013-08-17 21:11:00,68.0,63.0,30.11,NNE,22,0.0,0.0,83,0.00,,,0.15,,2013-08-18 02:11:00,
2013-08-17 21:21:00,68.0,63.0,30.12,NNE,16,0.0,0.0,83,0.00,,,0.15,,2013-08-18 02:21:00,
2013-08-17 21:42:00,68.0,63.0,30.12,NNE,16,0.0,0.0,83,0.00,,,0.15,,2013-08-18 02:42:00,
2013-08-17 21:52:00,68.0,63.0,30.12,NNE,16,0.0,0.0,83,0.00,,,0.15,,2013-08-18 02:52:00,
2013-08-17 22:11:00,68.0,63.0,30.12,NNE,16,0.0,0.0,84,0.00,,,0.15,,2013-08-18 03:11:00,
2013-08-17 22:21:00,68.0,63.0,30.11,NNE,16,0.0,0.0,84,0.00,,,0.15,,2013-08-18 03:21:00,
2013-08-17 22:43:00,68.0,63.0,30.11,NNE,16,0.0,0.0,84,0.00,,,0.15,,2013-08-18 03:43:00,
2013-08-17 22:53:00,67.0,63.0,30.11,NNE,16,0.0,0.0,86,0.00,,,0.15,,2013-08-18 03:53:00,
2013-08-17 23:02:00,-999.0,-99.9,30.11,NNE,16,0.0,0.0,-999,0.00,,,0.15,,2013-08-18 04:02:00,
2013-08-17 23:12:00,67.0,63.0,30.11,NNE,16,0.0,0.0,87,0.00,,,0.15,,2013-08-18 04:12:00,
2013-08-17 23:23:00,67.0,63.0,30.11,NNE,17,0.0,0.0,86,0.00,,,0.15,,2013-08-18 04:23:00,
2013-08-17 23:42:00,67.0,62.0,30.11,NNE,17,0.0,0.0,85,0.00,,,0.15,,2013-08-18 04:42:00,
2013-08-17 23:53:00,67.0,62.0,30.11,NNE,25,0.0,0.0,85,0.00,,,0.15,,2013-08-18 04:53:00,